カタログに戻る

FENGYUN 1C DEB

運用中PO
NORAD 31924·DEBRIS·🇨🇳 China

打ち上げ May 10, 1999 から Taiyuan Satellite Launch Center

Loading…

次のパス (今後24時間)

TLE

最新Source: Space-Track

元期: Sep 14, 2026, 07:22 UTC

1 31924U 99025CMB 26257.30707662  .00000599  00000-0  61047-3 0  9991
2 31924  98.4201  23.1174 0271378  86.8938 276.3220 13.64792242952258

AllMySatでFENGYUN 1C DEBをリアルタイム追跡

Download on the App Store